SCP
0 0 1 2 2 2 3 3 4 4 3 3 3 3 3 4 4 3 2 1 1 1
0 0 0 2 2 2 3 2 3 3 3 3 3 3 4 5 4 3 2 1 1 1
0 0 0 1 2 1 2 2 3 4 3 3 3 3 4 5 4 2 1 1 1 1
0 0 0 1 2 2 2 3 3 3 3 3 4 4 4 4 2 1 1 1 0 0
0 0 1 1 1 1 2 3 3 3 3 3 4 3 3 2 1 1 1 0 0 0
0 1 1 1 0 1 2 2 3 2 3 3 3 3 2 1 1 1 1 0 0 0
0 1 0 1 1 2 1 2 2 3 3 2 2 2 2 1 1 1 0 0 0 0
1 0 0 1 1 2 3 3 3 3 3 3 2 2 2 1 1 1 0 0 0 0
1 0 0 1 2 3 3 3 2 2 3 3 2 0 0 1 1 0 0 0 0 0
1 1 1 1 2 3 4 4 3 2 3 3 2 0 0 0 0 0 0 0 0 0
2 1 2 3 3 4 3 2 3 3 3 3 1 0 0 0 0 0 0 0 0 0
3 2 2 3 3 3 2 3 3 3 2 1 0 0 0 0 0 0 0 0 0 0
1 2 2 3 3 2 3 3 3 2 1 0 0 0 0 0 0 0 0 0 0 0
1 2 2 2 2 2 1 2 1 0 0 0 0 0 0 0 0 0 0 0 0 0
Wind_Speed_500mb
61 65 63 70 74 77 75 68 67 56 53 50 46 48 49 46 44 41 40 40 39 37
60 66 69 66 78 76 73 66 64 60 55 46 46 48 48 46 43 43 44 42 40 34
63 62 71 69 77 84 75 61 71 65 52 45 46 48 48 42 41 41 46 41 38 33
66 62 70 75 72 81 70 65 75 68 50 49 48 51 49 38 46 41 42 41 38 33
68 63 69 75 74 72 63 68 70 65 50 49 53 54 46 44 48 48 41 40 35 34
68 69 75 78 73 65 59 65 66 58 54 57 58 55 47 46 43 46 42 36 34 33
67 74 79 77 74 61 61 66 67 61 62 61 58 53 53 50 45 45 39 35 33 30
61 72 78 74 74 65 69 69 68 68 65 61 59 55 57 50 47 42 38 35 32 28
51 64 71 72 74 70 71 72 71 70 68 64 59 59 53 49 46 39 37 39 34 28
49 54 63 70 71 73 74 74 71 69 64 64 61 62 56 48 41 33 35 39 33 28
45 54 63 74 74 73 70 70 70 68 62 60 57 63 50 48 34 31 32 32 31 27
45 53 63 68 67 65 66 67 66 59 61 61 65 53 49 42 38 35 33 33 29 25
44 56 61 62 62 61 62 62 56 62 62 66 57 55 44 43 42 40 36 32 27 24
28 41 42 47 49 56 59 63 70 75 63 60 58 53 44 40 38 38 35 32 27 25
Wind_Direction_500mb
266 258 258 252 247 246 245 245 244 232 236 242 240 232 231 231 227 221 217 220 225 226
266 256 253 256 249 247 248 244 238 228 229 234 231 227 228 225 225 215 214 220 220 220
272 259 251 252 250 244 249 244 226 227 224 227 224 224 220 219 207 208 213 213 222 223
272 259 250 251 250 239 244 235 226 226 221 223 220 217 214 214 203 209 204 216 221 224
270 256 244 245 247 236 234 218 218 217 218 220 216 212 211 201 204 207 204 214 220 227
265 253 236 239 241 228 220 211 209 213 220 214 209 208 202 199 203 204 206 217 223 224
262 248 230 232 230 216 212 204 210 216 215 208 207 204 193 194 199 200 208 213 216 215
261 245 227 226 219 209 205 208 213 214 205 203 203 198 189 192 194 202 206 205 203 198
269 235 219 216 211 203 202 208 212 208 200 197 199 192 187 193 196 199 203 198 193 199
253 216 204 202 200 199 200 204 204 198 194 197 198 184 187 187 186 192 196 195 201 209
227 202 192 193 193 194 197 198 192 191 193 194 190 181 175 173 179 186 188 194 200 210
199 186 183 181 182 184 182 182 185 189 187 182 169 166 169 175 183 183 188 190 199 208
179 174 168 169 168 173 180 183 184 178 178 171 166 170 175 184 181 188 192 195 202 200
173 177 178 176 178 179 178 176 172 164 160 165 171 170 182 182 189 194 198 202 198 189
Wind_Speed_850mb
61 65 63 70 74 77 75 68 67 56 53 50 46 48 49 46 44 41 40 40 39 37
60 66 69 66 78 76 73 66 64 60 55 46 46 48 48 46 43 43 44 42 40 34
63 62 71 69 77 84 75 61 71 65 52 45 46 48 48 42 41 41 46 41 38 33
66 62 70 75 72 81 70 65 75 68 50 49 48 51 49 38 46 41 42 41 38 33
68 63 69 75 74 72 63 68 70 65 50 49 53 54 46 44 48 48 41 40 35 34
68 69 75 78 73 65 59 65 66 58 54 57 58 55 47 46 43 46 42 36 34 33
67 74 79 77 74 61 61 66 67 61 62 61 58 53 53 50 45 45 39 35 33 30
61 72 78 74 74 65 69 69 68 68 65 61 59 55 57 50 47 42 38 35 32 28
51 64 71 72 74 70 71 72 71 70 68 64 59 59 53 49 46 39 37 39 34 28
49 54 63 70 71 73 74 74 71 69 64 64 61 62 56 48 41 33 35 39 33 28
45 54 63 74 74 73 70 70 70 68 62 60 57 63 50 48 34 31 32 32 31 27
45 53 63 68 67 65 66 67 66 59 61 61 65 53 49 42 38 35 33 33 29 25
44 56 61 62 62 61 62 62 56 62 62 66 57 55 44 43 42 40 36 32 27 24
28 41 42 47 49 56 59 63 70 75 63 60 58 53 44 40 38 38 35 32 27 25
Wind_Direction_850mb
266 258 258 252 247 246 245 245 244 232 236 242 240 232 231 231 227 221 217 220 225 226
266 256 253 256 249 247 248 244 238 228 229 234 231 227 228 225 225 215 214 220 220 220
272 259 251 252 250 244 249 244 226 227 224 227 224 224 220 219 207 208 213 213 222 223
272 259 250 251 250 239 244 235 226 226 221 223 220 217 214 214 203 209 204 216 221 224
270 256 244 245 247 236 234 218 218 217 218 220 216 212 211 201 204 207 204 214 220 227
265 253 236 239 241 228 220 211 209 213 220 214 209 208 202 199 203 204 206 217 223 224
262 248 230 232 230 216 212 204 210 216 215 208 207 204 193 194 199 200 208 213 216 215
261 245 227 226 219 209 205 208 213 214 205 203 203 198 189 192 194 202 206 205 203 198
269 235 219 216 211 203 202 208 212 208 200 197 199 192 187 193 196 199 203 198 193 199
253 216 204 202 200 199 200 204 204 198 194 197 198 184 187 187 186 192 196 195 201 209
227 202 192 193 193 194 197 198 192 191 193 194 190 181 175 173 179 186 188 194 200 210
199 186 183 181 182 184 182 182 185 189 187 182 169 166 169 175 183 183 188 190 199 208
179 174 168 169 168 173 180 183 184 178 178 171 166 170 175 184 181 188 192 195 202 200
173 177 178 176 178 179 178 176 172 164 160 165 171 170 182 182 189 194 198 202 198 189